Location: Sinnemahoning State Park
(41.4031°N, 78.0230°W)
Time: 04:44:43
(UTC-04:00)

Daily predictions for brighter satellites

Satellite Brightness Start Highest point End
(mag) Time Altitude Azimuth Time Altitude Azimuth Time Altitude Azimuth
Cosmos 2263 Rocket 4.0 00:04:30 10° NW 00:07:11 25° WNW 00:07:11 25° WNW
Cosmos 2322 Rocket 4.3 00:14:22 20° WNW 00:15:32 21° NW 00:19:44 10° N
ATLAS CENTAUR R/B 4.3 00:42:26 71° WSW 00:43:52 83° NW 01:09:45 10° NE
Cosmos 2278 Rocket 4.0 00:52:15 10° NNW 00:54:50 27° N 00:54:50 27° N
Cosmos 2219 Rocket 4.0 01:49:27 26° N 01:49:27 26° N 01:52:14 10° N
SL-16 R/B 3.8 02:05:24 31° NNE 02:05:24 31° NNE 02:08:15 10° NNE
Cosmos 2237 Rocket 3.9 02:08:49 28° N 02:08:49 28° N 02:11:54 10° N
Cosmos 2333 Rocket 3.9 02:09:43 27° NNW 02:09:43 27° NNW 02:12:57 10° N
ATLAS 3B R/B 3.4 02:10:14 53° NNW 02:10:14 53° NNW 02:16:40 10° NNE
ATLAS CENTAUR R/B 4.4 02:12:02 10° N 02:13:15 14° NNE 02:13:15 14° NNE
CZ-4C R/B 3.7 02:21:12 34° NE 02:21:12 34° NE 02:24:31 10° NE
COSMOS 2455 4.4 02:22:55 29° NNW 02:22:55 29° NNW 02:26:59 10° NNE
SL-16 R/B 4.3 02:38:26 16° ESE 02:41:43 25° ENE 02:46:38 10° N
Cosmos 1745 Rocket 4.5 02:46:28 10° N 02:52:20 57° ENE 02:52:20 57° ENE
CZ-2D R/B 3.9 02:58:14 10° NE 03:02:15 22° E 03:02:30 22° E
USA 234 4.0 02:57:53 10° ENE 03:03:20 39° ESE 03:03:20 39° ESE
ARIANE 5 R/B 4.0 03:00:52 10° NE 03:05:07 30° E 03:05:07 30° E
USA 238 DEB 4.3 03:05:39 48° NW 03:05:39 48° NW 03:12:25 10° NNE
USA 238 4.3 03:05:46 48° NW 03:05:46 48° NW 03:12:31 10° NNE
Meteor 2-3 Rocket 4.4 03:05:28 10° N 03:11:05 50° ENE 03:11:17 49° E
ADEOS 4.5 03:06:17 10° NNE 03:10:22 45° ENE 03:10:22 45° ENE
Cosmos 1943 3.8 03:15:03 50° E 03:15:03 50° E 03:19:47 10° NNE
NOSS 3-2 (A) 3.5 03:20:43 72° NNW 03:20:43 72° NNW 03:26:54 10° NNE
NPP 4.3 03:17:39 10° N 03:21:41 49° NNW 03:21:41 49° NNW
Cosmos 2369 Rocket 2.5 03:19:17 10° NNW 03:24:37 64° NE 03:24:37 64° NE
NOSS 3-3 (A) 4.3 03:24:06 10° NW 03:31:36 79° WSW 03:33:13 59° S
NOSS 3-3 (C) 4.3 03:24:11 10° NW 03:31:41 79° WSW 03:33:32 56° SSE
Resurs 1-4 Rocket 2.9 03:28:22 10° NNE 03:33:23 43° E 03:33:46 42° ESE
CENTAUR R/B 3.7 03:32:55 28° SE 03:34:12 30° ESE 03:39:50 10° NE
Cosmos 883 Rocket 4.4 03:35:07 70° SE 03:35:34 73° E 03:41:42 10° NNE
Cosmos 1455 4.2 03:36:58 26° ENE 03:36:58 26° ENE 03:39:38 10° NNE
NOSS 3-2 (C) 3.4 03:37:46 72° WNW 03:37:50 72° NW 03:44:32 10° NNE
Centaur D-1A AC-31 3.9 03:02:37 10° WSW 03:38:21 39° S 03:43:58 10° ESE
Cosmos 2251 Rocket 3.8 03:42:50 62° NNW 03:42:50 62° NNW 03:47:19 10° NNE
Cosmos 1943 Rocket 3.4 03:38:40 10° N 03:44:01 41° ENE 03:49:17 10° SE
Okean O Rocket 4.1 03:43:26 10° NE 03:46:23 17° E 03:48:35 13° SE
SL-16 R/B 4.1 03:47:17 17° NW 03:47:25 17° NW 03:50:58 10° N
Cosmos 2315 Rocket 4.1 03:51:10 51° SSE 03:52:45 71° E 03:59:00 10° NNE
Cosmos 2263 4.1 03:55:23 10° NNW 04:01:13 89° WSW 04:03:20 42° SSE
ERS-2 3.7 03:58:19 10° N 04:00:25 31° N 04:00:25 31° N
Cosmos 839 Rocket 4.3 03:57:21 10° NW 04:05:11 57° WSW 04:06:15 52° SW
IRS P6 4.5 04:00:36 10° N 04:05:59 79° WNW 04:06:30 71° SW
CZ-4C R/B 3.9 04:06:22 20° NW 04:07:54 22° NNW 04:12:37 10° NNE
Cosmos 494 Rocket 4.2 04:11:19 54° WNW 04:11:20 54° WNW 04:16:31 10° N
ATLAS 5 CENTAUR R/B 1.7 04:15:17 75° SW 04:15:42 85° NW 04:20:56 10° NE
Meteor 2-10 4.1 04:20:35 56° WSW 04:21:20 63° WNW 04:26:43 10° N
Cosmos 2242 Rocket 4.0 04:22:02 49° WNW 04:22:02 49° WNW 04:26:05 10° N
Cosmos 1862 Rocket 3.6 04:21:36 63° SSE 04:22:14 78° E 04:26:38 10° N
SL-16 R/B 2.6 04:23:32 45° SW 04:24:56 55° W 04:31:01 10° NNW
Cosmos 1302 Rocket 4.0 04:23:36 10° NNW 04:28:43 54° WSW 04:28:59 53° WSW
EO 1 Del DPAF 3.6 04:35:15 51° WNW 04:35:15 51° WNW 04:38:30 10° NNW
Cosmos 1862 4.1 04:33:05 10° N 04:36:59 52° E 04:40:51 10° SSE
UNKNOWN OBJECT B 2.8 04:33:20 10° N 04:36:50 59° WNW 04:36:50 59° WNW
IRS-1D 4.0 04:32:08 10° N 04:37:02 42° WNW 04:37:55 39° W
Cosmos 1709 Rocket 4.3 04:33:36 10° NNW 04:39:37 46° W 04:41:39 35° SW
CZ-2C R/B 4.0 04:35:40 10° SSE 04:40:03 64° ENE 04:44:27 10° N
CZ-2D R/B 2.5 04:37:33 10° N 04:42:34 45° WNW 04:43:49 38° WSW
Cosmos 1184 Rocket 3.7 04:40:12 10° NNW 04:42:34 38° NW 04:42:34 38° NW
ARIANE 5 R/B 3.3 04:39:53 10° N 04:44:34 34° WNW 04:45:27 32° W
Cosmos 1869 3.4 04:44:49 52° W 04:45:02 53° W 04:48:56 10° N
SeaSat 1 2.4 04:40:08 10° SSE 04:45:03 85° ENE 04:50:01 10° NNW
USA 234 3.5 04:40:42 10° NE 04:47:08 61° NW 04:50:41 28° WSW
Cosmos 1733 Rocket 3.3 04:42:56 10° NNW 04:47:09 47° W 04:47:35 45° WSW
Cosmos 389 Rocket 2.4 04:49:10 59° W 04:49:16 60° W 04:52:45 10° N
Cosmos 1933 3.3 04:54:18 27° S 04:56:28 88° WNW 05:00:35 10° N
Cosmos 1782 Rocket 4.3 04:52:15 10° N 04:56:31 54° E 05:00:45 10° SSE
CZ-4B R/B 2.9 04:56:01 10° NNE 04:59:41 68° ESE 05:02:25 18° S
COSMOS 2406 3.2 04:58:36 23° SSW 05:02:23 84° WNW 05:08:11 10° NNE
Cosmos 2074 Rocket 3.9 04:56:11 10° NNW 05:02:23 71° W 05:08:34 10° S
Cosmos 2327 Rocket 4.4 04:58:23 10° NNW 05:04:27 70° W 05:10:35 10° S
Atlas Centaur 2 3.6 05:04:52 12° S 05:06:33 14° SSE 05:09:11 10° SE
Cosmos 2184 Rocket 4.0 05:01:16 10° NNW 05:07:36 67° W 05:13:52 10° S
Cosmos 2369 Rocket 3.9 05:04:46 10° WNW 05:06:18 14° WNW 05:06:18 14° WNW
MOZ.5/SAFIR/RUBIN 5/SL-8 3.7 05:03:52 10° S 05:08:25 58° W 05:13:01 10° NNW
COSMOS 2487 3.7 05:07:12 10° S 05:10:37 41° ESE 05:14:03 10° NNE
Aureole 3 Rocket 3.9 05:03:40 10° S 05:10:44 82° E 05:15:43 10° N
Cosmos 1174 4.3 05:07:43 23° SW 05:11:02 73° WNW 05:15:25 10° NNE
CZ-2D R/B 4.3 05:07:58 10° N 05:11:58 35° WNW 05:13:35 26° WSW
Cosmos 1455 3.8 05:12:01 19° WNW 05:12:01 19° WNW 05:14:51 10° NNW
Resurs 1-4 Rocket 3.3 05:08:45 10° NNW 05:12:57 25° WNW 05:14:50 20° W
CZ-4B R/B 3.0 05:09:07 10° NNE 05:14:26 79° WNW 05:19:40 10° SSW
CZ-4B DEB 4.1 05:09:22 10° NNE 05:14:51 85° WNW 05:20:19 10° SSW
Cosmos 1190 Rocket 4.1 05:10:39 11° SSW 05:15:42 77° ESE 05:20:54 10° NNE
ADEOS Rocket 4.0 05:09:09 10° NNE 05:16:54 67° E 05:24:32 10° S
Cosmos 1908 Rocket 3.7 05:12:41 10° NNW 05:16:56 50° W 05:21:07 10° SSW
SL-08 ROCKET BODY 4.5 05:12:20 10° NNW 05:18:14 58° W 05:24:12 10° S
Abrixas rocket 3.5 05:18:19 10° NW 05:21:30 41° NNE 05:24:42 10° E
Thor Agena Rocket 3.5 05:17:01 10° S 05:22:10 78° WSW 05:27:24 10° NNW
Cosmos 1610 Rocket 4.5 05:16:15 10° NNW 05:22:34 72° W 05:28:48 10° S
Cosmos 1992 Rocket 4.0 05:17:44 10° NNW 05:22:52 57° WSW 05:27:58 10° S
Okean O Rocket 2.0 05:18:43 10° N 05:22:58 44° WNW 05:26:03 17° SW
CENTAUR R/B 2.9 05:20:07 20° WSW 05:24:26 52° NW 05:31:13 10° NNE
Cosmos 2221 Rocket 3.6 05:20:58 12° SSW 05:25:05 63° W 05:29:29 10° N
ADEOS II 2.7 05:20:40 10° NNE 05:25:52 60° E 05:31:03 10° S
Cosmos 1943 Rocket 3.0 05:22:46 10° NW 05:27:33 29° WSW 05:32:19 10° SSW
SL-27 R/B 3.8 05:27:07 20° W 05:28:27 25° WNW 05:31:31 10° N
Cosmos 2341 Rocket 4.3 05:22:52 10° N 05:29:10 74° E 05:35:30 10° SSE
Okean-O 2.9 05:25:37 10° NNE 05:30:04 70° ESE 05:34:29 10° S
USA 32 4.1 05:26:41 10° SSW 05:31:49 56° W 05:36:59 10° N
Cosmos 1408 3.4 05:29:25 10° NNW 05:32:47 32° W 05:36:08 10° SSW
PSLV R/B 3.4 05:31:59 18° W 05:34:23 56° SSW 05:37:44 10° ESE
Cosmos 1703 Rocket 4.0 05:30:58 12° SSW 05:34:51 44° WNW 05:39:09 10° N
Cosmos 2285 Rocket 4.3 05:33:18 10° NNW 05:39:19 44° WSW 05:45:17 10° S
Cosmos 1825 3.4 05:43:48 10° NW 05:46:46 22° W 05:49:42 10° SW
Cosmos 2151 Rocket 3.8 05:46:23 10° N 05:50:48 77° E 05:55:11 10° SSE
USA 116 4.3 05:47:56 10° S 05:52:43 69° W 05:57:58 10° NNW
PSLV R/B 3.7 05:48:55 10° N 05:53:13 57° WNW 05:57:31 10° SSW
Cosmos 676 Rocket 4.0 05:48:25 10° SSW 05:53:36 82° WNW 05:58:49 10° NNE
Meteor 1-31 Rocket 3.3 05:49:53 10° NNE 05:53:39 62° E 05:57:26 10° S
Cosmos 1656 Rocket 4.2 05:52:00 10° NW 05:56:51 34° WSW 06:01:39 10° SSW
ATLAS 5 CENTAUR R/B 3.8 05:57:58 10° WNW 06:01:17 17° NNW 06:04:46 10° N
NAVSTAR 52 R/B(PAM-D 4.1 06:00:59 11° WSW 06:02:18 22° SSW 06:03:42 10° SE
Meteor 1-25 Rocket 4.2 05:56:54 10° N 06:02:29 87° W 06:08:04 10° S
CZ-4B R/B 4.3 06:00:47 10° NNE 06:05:20 83° ESE 06:09:46 10° S
Meteor 2-13 Rocket 4.4 05:59:56 10° NNW 06:05:56 66° W 06:11:53 10° S
Okean 1-7 4.0 06:05:28 10° SW 06:09:13 29° WNW 06:13:01 10° NNW
Cosmos 407 Rocket 4.0 06:06:05 10° SW 06:11:01 42° WNW 06:16:02 10° N
Meteor 1-20 Rocket 4.3 06:06:21 10° N 06:12:04 85° W 06:17:51 10° S
